Flag for Italy Weather past 2 weeks in Venice, Italy

Now
63 °F

Passing clouds.


Feels Like: 63 °F
Forecast: 62 / 74 °F
Wind: 3 mph from North

Location: Venice / Tessera

Current Time: Oct 1, 2014 at 8:55:41 PM

Latest Report: Oct 1, 2014 at 8:20 PM


Visibility: 5 mi

Pressure: 30.18 "Hg

Humidity: 100%

Dew point: 63 °F

Location of VeniceLocation

Historic Weather in Venice — Graph

°F

Venice temperature yesterday

Maximum temperature yesterday: 72 °F (at 12:50 PM)
Minimum temperature yesterday: 61 °F (at 12:20 AM)
Average temperature yesterday: 66 °F

Past Weeks' High & Low Weather Summary

 TemperatureHumidityPressure
High75 °F (Sep 21, 1:50 PM)100% (Sep 19, 10:20 PM)30.39 "Hg (Sep 19, 10:20 PM)
Low54 °F (Sep 23, 2:50 AM)49% (Sep 24, 2:20 PM)29.68 "Hg (Sep 22, 6:20 PM)
Average65 °F80%30.10 "Hg
* Reported Sep 16 7:20 PM — Oct 1 7:50 PM, Venice, Weather by CustomWeather, © 2014

Note: Actual official high and low records may vary slightly from our data, if they occured in-between our weather recording intervals... More about our weather records

Advertising

Venice weather history for previous 24 hours

 ConditionsComfort  
Time TempWeatherWind HumidityBarometerVisibility
7:50 PM
Oct 1
64 °FPartly sunny.7 mph94%30.18 "Hg4 mi
7:20 PM64 °FPartly sunny.7 mph94%30.18 "Hg4 mi
6:50 PM64 °FPartly sunny.5 mph94%30.21 "Hg5 mi
6:20 PM64 °FFog.3 mph94%30.18 "Hg3 mi
5:50 PM64 °FLight rain. Fog.3 mph94%30.18 "Hg3 mi
5:20 PM64 °FLight rain. Fog.1 mph94%30.18 "Hg2 mi
4:50 PM64 °FLight rain. Fog.3 mph94%30.18 "Hg2 mi
4:20 PM64 °FFog.1 mph94%30.21 "Hg2 mi
3:50 PM64 °FFog.3 mph100%30.21 "Hg2 mi
3:20 PM64 °FDrizzle. Fog.6 mph94%30.21 "Hg2 mi
2:50 PM64 °FLight rain. Fog.6 mph94%30.21 "Hg1 mi
2:20 PM64 °FLight rain. Fog.7 mph94%30.21 "Hg1 mi
1:50 PM64 °FLight rain. Fog.7 mph94%30.21 "Hg1 mi
1:20 PM64 °FLight rain. Fog.5 mph94%30.24 "Hg1 mi
12:50 PM64 °FLight rain. Fog.3 mph100%30.24 "Hg1 mi
12:20 PM64 °FLight rain. Fog.3 mph100%30.24 "Hg1 mi
11:50 AM64 °FLight rain. Fog.7 mph100%30.24 "Hg1 mi
11:20 AM64 °FLight rain. Fog.3 mph94%30.21 "Hg1 mi
10:50 AM64 °FLight rain. Fog.8 mph94%30.24 "Hg1 mi
10:20 AM64 °FLight rain. Fog.7 mph94%30.21 "Hg2 mi
9:50 AM64 °FFog.8 mph94%30.21 "Hg2 mi
9:20 AM64 °FFog.7 mph94%30.21 "Hg3 mi
8:50 AM64 °FFog.5 mph94%30.21 "Hg3 mi
8:20 AM66 °FPartly sunny.5 mph88%30.21 "Hg4 mi
7:50 AM66 °FPassing clouds.No wind94%30.21 "Hg6 mi
7:20 AM66 °FPassing clouds.1 mph94%30.21 "Hg6 mi
6:50 AM66 °FPassing clouds.1 mph94%30.21 "Hg6 mi
6:20 AM66 °FPassing clouds.3 mph88%30.21 "Hg5 mi
5:50 AM66 °FPassing clouds.2 mph94%30.21 "Hg5 mi
5:20 AM66 °FPassing clouds.2 mph88%30.21 "Hg5 mi
4:50 AM66 °FPassing clouds.2 mph94%30.21 "Hg5 mi
4:20 AM66 °FPassing clouds.2 mph94%30.21 "Hg4 mi
3:50 AM66 °FPassing clouds.3 mph94%30.21 "Hg4 mi
3:20 AM66 °FPassing clouds.3 mph88%30.21 "Hg5 mi
2:50 AM66 °FPassing clouds.3 mph88%30.24 "Hg6 mi
2:20 AM66 °FPassing clouds.1 mph88%30.24 "Hg6 mi
1:50 AM66 °FPassing clouds.1 mph88%30.24 "HgN/A
1:20 AM66 °FPassing clouds.2 mph88%30.24 "HgN/A
12:50 AM66 °FPassing clouds.2 mph88%30.24 "HgN/A
12:20 AM66 °FPassing clouds.3 mph88%30.24 "HgN/A
11:50 PM
Sep 30
66 °FPassing clouds.3 mph88%30.24 "HgN/A
11:20 PM68 °FPassing clouds.2 mph88%30.27 "HgN/A
10:20 PM68 °FClear.5 mph88%30.24 "Hg10 mi
9:50 PM68 °FClear.3 mph88%30.24 "Hg10 mi
9:20 PM68 °FClear.5 mph83%30.27 "Hg10 mi
8:50 PM68 °FClear.5 mph83%30.27 "Hg10 mi
8:20 PM68 °FClear.2 mph83%30.24 "Hg10 mi
Weather by CustomWeather, © 2014

See weather overviewHow to use our weather pages